Terminal Aerodrome Forecast
Issued by NWS Sterling, VA

Current Version | Previous Version | Graphics & Text | Print | Product List | Glossary On
Versions: 1 2 3 4 5 6 7 8 9 10 11 12 13 14 15 16 17 18 19 20 21 22 23 24 25
000
FTUS41 KLWX 220500 RRA
TAFIAD
TAF
KIAD 220544Z 2206/2312 00000KT P6SM SCT250
     FM221200 00000KT P6SM SCT050 BKN090
     FM221500 VRB03KT 6SM -FZRAPL OVC050
     FM221700 06004KT 5SM -RA OVC025
     FM230000 02004KT 3SM -RA OVC015
     FM230200 01005KT P6SM OVC015
     FM230300 36005KT P6SM OVC008=

USA.gov is the U.S. government's official web portal to all federal, state and local government web resources and services.